Location: Arrowhead Springs
(34.1867°N, 117.2617°W)
Time: 16:30:20
(UTC+00:00)

USA 308 - Pass Details

Date: 13 April 2024
Orbit: 493 x 493 km, 54.0° (Epoch: 14 March)

Event Time Altitude Azimuth Distance (km) Brightness Sun altitude
Exits shadow 12:32:13 15° 249° (WSW) 1,346 4.1 -10.3°
Maximum altitude 12:35:03 43° 318° (NW) 689 3.1 -9.7°
Drops below altitude 10° 12:38:48 10° 31° (NNE) 1,694 6.1 -9.0°
Sets 12:41:05 0° 38° (NE) 2,567 7.3 -8.6°
